TimeCDT,TemperatureF,Dew PointF,Humidity,Sea Level PressureIn,VisibilityMPH,Wind Direction,Wind SpeedMPH,Gust SpeedMPH,PrecipitationIn,Events,Conditions,WindDirDegrees,DateUTC
12:53 AM,77.0,72.0,84,30.04,10.0,East,8.1,-,N/A,,Partly Cloudy,80,2013-08-11 05:53:00
1:53 AM,77.0,73.0,88,30.03,10.0,East,6.9,-,N/A,,Mostly Cloudy,80,2013-08-11 06:53:00
2:53 AM,77.0,73.0,88,30.03,10.0,East,5.8,-,N/A,,Mostly Cloudy,80,2013-08-11 07:53:00
3:53 AM,75.9,73.0,91,30.03,10.0,East,5.8,-,N/A,,Mostly Cloudy,80,2013-08-11 08:53:00
4:53 AM,75.9,73.0,91,30.03,10.0,East,6.9,-,N/A,,Mostly Cloudy,80,2013-08-11 09:53:00
5:53 AM,75.0,72.0,90,30.04,10.0,ENE,6.9,-,N/A,,Clear,70,2013-08-11 10:53:00
6:53 AM,75.0,72.0,90,30.04,10.0,East,5.8,-,N/A,,Clear,80,2013-08-11 11:53:00
7:53 AM,75.9,73.0,91,30.06,10.0,East,4.6,-,N/A,,Overcast,90,2013-08-11 12:53:00
8:53 AM,78.1,73.0,84,30.06,10.0,ESE,5.8,-,N/A,,Overcast,110,2013-08-11 13:53:00
9:03 AM,78.8,73.4,83,30.07,10.0,East,4.6,-,N/A,,Overcast,90,2013-08-11 14:03:00
9:53 AM,81.0,73.9,79,30.06,10.0,East,4.6,-,N/A,,Mostly Cloudy,80,2013-08-11 14:53:00
10:04 AM,82.4,73.4,74,30.07,10.0,Variable,4.6,-,N/A,,Scattered Clouds,0,2013-08-11 15:04:00
10:53 AM,84.0,73.9,72,30.06,10.0,NNE,3.5,-,N/A,,Mostly Cloudy,30,2013-08-11 15:53:00
11:02 AM,84.2,73.4,70,30.08,10.0,NNE,3.5,-,N/A,,Mostly Cloudy,30,2013-08-11 16:02:00
11:30 AM,84.2,73.4,70,30.08,10.0,NE,5.8,-,N/A,,Mostly Cloudy,40,2013-08-11 16:30:00
11:39 AM,86.0,73.4,66,30.07,10.0,Calm,Calm,-,N/A,,Scattered Clouds,0,2013-08-11 16:39:00
11:53 AM,86.0,73.9,67,30.06,10.0,North,4.6,-,N/A,,Mostly Cloudy,10,2013-08-11 16:53:00
12:08 PM,84.2,73.4,70,30.07,10.0,NE,6.9,-,N/A,,Mostly Cloudy,40,2013-08-11 17:08:00
12:33 PM,84.2,73.4,70,30.07,10.0,East,3.5,-,N/A,,Overcast,80,2013-08-11 17:33:00
12:53 PM,86.0,73.9,67,30.05,10.0,NNE,5.8,-,N/A,,Mostly Cloudy,30,2013-08-11 17:53:00
1:53 PM,87.1,73.9,65,30.04,10.0,NE,4.6,-,N/A,,Mostly Cloudy,50,2013-08-11 18:53:00
2:53 PM,90.0,75.0,61,30.02,10.0,ENE,6.9,-,N/A,,Partly Cloudy,70,2013-08-11 19:53:00
3:53 PM,91.0,73.0,55,29.99,10.0,Calm,Calm,-,N/A,,Clear,0,2013-08-11 20:53:00
4:53 PM,91.0,73.9,57,30.00,10.0,ESE,3.5,-,N/A,,Mostly Cloudy,110,2013-08-11 21:53:00
5:53 PM,90.0,71.1,54,29.99,10.0,Calm,Calm,-,N/A,,Clear,0,2013-08-11 22:53:00
6:53 PM,89.1,73.9,61,29.98,10.0,East,4.6,-,N/A,,Clear,80,2013-08-11 23:53:00
7:53 PM,87.1,73.9,65,29.98,10.0,ESE,4.6,-,N/A,,Partly Cloudy,120,2013-08-12 00:53:00
8:53 PM,82.9,73.9,74,29.99,10.0,Variable,3.5,-,N/A,,Clear,0,2013-08-12 01:53:00
9:53 PM,81.0,73.0,77,30.01,10.0,Calm,Calm,-,N/A,,Clear,0,2013-08-12 02:53:00
10:53 PM,80.1,73.0,79,30.01,10.0,Calm,Calm,-,N/A,,Clear,0,2013-08-12 03:53:00
11:53 PM,78.1,73.9,87,30.01,10.0,ENE,4.6,-,N/A,,Clear,60,2013-08-12 04:53:00